Theta_e
307 306 307 313 316 318 320 321 318 316 316 312 313 315 316 320 319 321 322 323 330 334 334 335 336 335 334 334 333 331 330 332 333 331 332 336 335 336 337 339 342 342 343 341 340 343 342 341 338 337 337 335 329 326 326 325 326 328 330 332 336 338 339 339 342 341 338 335 331 330 331 331 330 331 331 330 332 333 334 335 334 335 335 334 335 333 333 333 332 330 329 329 328 328 326 325 329
306 306 310 316 317 319 321 319 317 315 313 311 313 315 317 320 319 321 322 324 329 333 333 333 333 331 331 333 333 331 328 328 331 333 333 333 335 337 338 340 342 344 343 341 339 341 341 341 340 338 337 335 330 327 327 326 326 327 330 332 335 340 340 340 341 341 338 334 331 330 330 331 330 330 329 330 332 333 334 335 334 335 335 334 335 333 333 332 331 331 331 331 329 328 324 324 330
306 308 314 318 318 318 320 317 315 313 311 310 312 317 318 319 320 322 323 326 329 331 331 331 330 327 329 331 329 330 328 326 328 333 335 333 335 336 338 341 342 343 343 341 339 341 342 342 340 339 336 333 330 327 327 327 326 327 329 331 334 340 341 341 340 339 337 333 332 330 331 331 331 329 327 329 332 334 334 334 335 334 335 334 334 334 333 331 330 330 330 330 329 326 322 327 332
306 310 317 319 318 318 318 315 315 313 311 311 312 317 319 319 321 323 324 325 326 327 329 329 327 324 327 327 326 328 327 327 328 333 335 333 335 337 340 342 342 342 342 342 341 341 343 342 340 339 336 333 331 327 327 328 326 328 330 330 333 337 340 341 339 338 336 333 333 331 331 330 329 328 327 330 332 333 334 334 333 332 332 332 333 332 331 330 330 329 327 327 327 325 323 331 333
308 313 317 319 319 317 318 316 316 314 312 313 313 316 318 319 321 324 324 323 324 325 326 326 324 323 325 324 325 327 326 327 329 332 332 331 334 337 340 342 341 342 340 342 342 342 343 341 339 339 337 335 334 328 327 328 327 328 331 331 333 335 337 339 337 336 335 333 332 331 331 329 329 328 327 331 332 332 333 332 332 331 330 330 330 330 329 329 329 328 326 328 328 325 326 332 334
312 316 317 319 320 317 317 314 313 313 314 316 315 317 317 319 323 324 324 322 323 323 323 324 323 323 323 322 323 324 324 326 329 328 328 329 333 335 339 342 341 341 339 341 341 343 342 340 339 338 337 336 335 331 327 328 327 327 329 331 333 334 336 336 335 335 334 333 331 330 329 329 329 328 328 331 331 330 330 330 329 329 328 328 328 328 327 326 326 325 327 330 326 323 327 332 334
315 319 317 317 317 316 316 313 312 313 315 318 316 316 316 320 324 323 322 321 321 321 321 322 323 323 322 322 322 322 322 324 326 325 325 327 332 335 339 341 339 338 338 339 340 342 341 340 338 338 338 337 336 333 327 328 328 327 327 328 330 333 334 334 334 334 333 332 330 329 328 329 329 328 330 331 329 328 328 327 327 327 326 326 327 326 325 323 323 324 327 329 322 318 327 332 333
317 320 318 317 316 315 315 314 314 315 316 317 317 317 318 322 324 322 321 321 320 321 321 320 321 322 321 323 323 322 322 323 324 324 326 329 333 336 339 341 339 336 337 336 336 340 340 339 339 338 339 337 337 335 330 329 329 328 327 326 326 329 332 333 332 333 332 331 330 329 329 329 329 330 332 329 326 327 326 325 326 325 324 325 325 324 323 322 322 322 324 326 319 315 326 332 332
317 319 317 317 317 314 314 315 315 316 316 316 316 317 320 323 323 322 320 320 321 321 320 319 319 319 321 323 323 322 322 322 323 325 327 331 334 333 335 339 338 336 337 336 335 339 341 340 340 339 339 338 337 337 334 333 330 329 328 325 323 325 329 331 331 332 331 330 329 329 329 330 330 330 331 326 324 326 324 323 323 323 324 324 323 323 323 323 322 322 322 322 317 317 328 332 331
317 317 317 316 317 314 312 314 314 316 316 316 316 316 320 322 322 321 320 318 320 321 320 319 317 319 322 323 323 322 322 321 323 326 328 331 331 327 327 332 334 334 336 337 336 340 343 342 342 341 340 338 337 338 337 336 333 331 330 326 322 322 327 329 330 330 329 329 328 329 330 330 329 327 328 325 323 325 323 321 323 323 324 324 323 323 322 323 323 323 323 320 316 319 328 330 329
317 316 317 315 314 312 312 313 314 316 316 316 316 316 318 320 320 320 319 319 321 320 319 318 318 319 322 323 322 322 321 320 322 325 327 327 325 321 322 324 326 328 330 334 336 339 342 342 342 340 339 339 340 340 338 337 336 334 332 328 323 321 325 328 328 328 328 328 328 329 330 329 326 323 324 324 323 323 323 322 324 325 324 324 324 322 321 322 322 323 322 320 317 319 326 328 327
317 316 315 314 314 313 313 314 314 316 316 315 315 315 317 318 319 318 319 319 320 320 318 318 318 318 320 322 321 321 320 320 322 324 326 325 321 319 319 319 320 321 324 328 332 337 340 341 340 339 340 341 342 342 340 339 336 334 334 331 325 321 324 327 327 326 326 327 327 327 327 325 323 322 322 323 323 323 324 325 326 325 324 324 322 320 320 320 322 323 320 319 320 319 322 326 327
316 317 314 313 315 315 315 314 315 315 315 316 316 315 315 316 317 317 319 319 320 319 317 317 318 319 320 320 320 321 320 320 322 323 324 323 320 319 318 318 319 319 320 323 327 333 337 340 341 340 339 339 339 339 339 338 336 334 334 332 326 320 323 325 324 324 324 325 325 325 324 321 320 321 321 323 325 325 326 326 326 324 323 323 320 319 317 317 322 322 318 318 322 322 319 321 326
315 317 315 314 315 315 314 314 315 314 314 315 315 314 314 316 316 317 319 317 318 319 318 318 319 319 319 320 320 321 320 319 321 322 321 320 318 318 318 317 316 317 318 320 323 327 331 335 339 339 339 338 337 337 337 336 335 334 333 332 326 320 320 321 319 320 322 323 323 322 321 319 320 320 320 324 326 326 326 325 326 325 323 322 320 319 314 315 321 319 315 317 322 326 320 317 323
315 316 315 315 314 313 313 314 314 313 314 315 314 314 314 315 316 317 317 317 318 317 317 317 318 319 318 319 320 320 319 319 319 320 319 317 317 317 316 317 315 313 313 315 318 323 326 327 332 335 337 337 335 335 336 334 334 334 333 332 328 321 318 316 316 318 321 322 322 321 319 319 319 321 322 325 327 327 326 325 325 325 323 321 321 319 315 317 320 317 315 317 322 325 320 317 321
315 315 315 314 313 312 313 314 315 313 314 315 313 314 315 314 315 315 315 316 317 316 317 318 317 318 319 318 320 320 318 319 319 319 319 317 317 318 317 317 315 311 308 310 312 318 323 323 326 328 330 333 335 334 334 333 332 332 331 331 331 325 319 316 315 318 321 321 322 320 321 322 322 324 324 327 329 328 327 325 325 325 323 322 321 319 319 320 320 318 316 317 320 321 318 317 321
314 314 314 313 313 312 314 314 314 314 315 314 314 314 315 314 314 314 315 317 317 317 318 318 316 318 318 318 319 319 318 319 317 317 319 318 318 319 319 317 317 314 311 310 309 313 318 321 323 324 324 329 334 334 332 333 331 330 330 329 331 329 324 318 315 319 322 322 323 322 323 326 327 328 328 329 330 330 328 327 326 325 324 323 321 319 321 321 320 318 316 317 320 320 320 320 321
313 314 314 313 314 314 315 315 315 315 315 314 314 315 315 314 315 316 316 317 317 317 318 318 317 317 316 315 316 318 318 317 316 318 320 319 319 319 319 317 315 315 314 313 310 309 313 317 321 322 323 325 332 336 333 333 331 329 330 329 330 331 329 323 320 325 326 326 326 326 328 330 329 330 331 331 330 332 329 327 327 325 324 324 321 321 321 321 321 320 319 320 321 322 324 324 323
314 315 314 314 315 315 316 316 316 316 315 315 315 315 315 315 315 315 316 317 316 317 318 318 318 317 315 314 316 317 317 316 316 320 319 319 320 318 317 315 312 312 313 314 311 307 308 313 317 319 320 321 328 336 336 334 332 329 329 332 332 331 332 329 327 330 330 330 329 329 331 333 331 331 331 331 332 333 330 328 328 326 326 325 322 321 321 322 322 322 322 321 323 325 325 326 326
314 315 314 315 316 315 315 316 316 315 315 315 315 314 315 314 314 315 316 316 316 316 317 318 318 317 317 316 317 317 316 316 318 320 319 319 318 316 315 313 314 313 310 311 311 308 307 309 313 316 318 317 323 331 334 336 334 330 329 332 334 333 333 330 328 332 332 331 331 329 331 332 333 334 333 331 332 333 331 329 328 327 327 325 323 322 322 322 323 324 324 323 324 326 326 325 327
314 314 314 315 315 314 314 315 315 314 314 315 315 315 314 314 313 315 315 316 316 317 317 317 317 317 317 317 317 318 317 318 318 319 319 317 313 313 314 312 312 311 308 312 313 309 307 308 310 314 317 317 319 325 329 333 336 334 331 333 335 334 334 331 327 331 332 331 331 330 331 332 334 337 334 331 332 333 333 331 328 328 327 327 324 324 325 323 324 325 324 324 327 326 326 326 326
314 314 315 315 315 314 315 314 313 313 314 315 315 315 314 314 313 314 315 315 315 315 315 314 315 317 317 317 317 318 317 318 318 318 318 313 308 310 311 310 311 311 311 313 313 309 308 309 309 311 314 317 318 321 323 329 337 337 336 335 335 334 333 333 329 329 331 330 331 332 333 334 335 339 335 333 334 332 333 332 329 329 328 329 326 326 328 325 327 328 326 326 327 327 326 326 326
314 314 314 315 315 314 314 313 311 311 314 315 315 314 314 314 314 314 315 315 314 312 313 314 315 316 317 317 316 317 318 318 318 318 317 312 310 311 310 312 314 314 314 313 312 310 309 309 309 309 311 314 316 319 320 325 334 338 338 337 335 335 334 334 332 329 330 329 330 332 335 336 337 338 336 336 336 331 332 333 332 332 331 330 327 327 329 328 329 330 329 328 328 327 327 326 326
314 314 314 314 314 314 313 311 311 311 313 314 313 314 314 315 314 313 313 313 312 312 312 314 315 316 317 317 316 318 317 318 318 317 317 314 311 311 312 313 313 313 314 313 313 312 310 309 309 309 309 310 313 317 319 321 327 333 336 337 336 336 335 335 333 330 330 329 328 330 334 337 337 338 336 335 335 332 333 334 333 333 332 331 329 329 330 330 330 330 330 329 328 327 327 327 326
313 314 314 314 313 313 312 311 311 311 312 312 312 313 313 313 312 312 313 312 312 312 312 313 314 315 316 317 317 318 318 318 319 315 314 314 311 311 313 313 311 313 313 312 312 311 310 309 308 309 309 310 311 314 318 320 322 325 330 334 336 336 336 336 334 332 331 331 329 328 331 334 335 337 336 333 332 333 333 335 335 333 332 332 331 329 330 331 330 330 330 329 329 328 327 327 325
313 315 315 314 313 313 312 311 311 311 311 311 312 313 312 311 310 312 313 311 312 313 312 314 314 314 315 317 317 318 318 318 317 314 313 312 311 312 313 313 313 314 312 311 313 311 309 309 308 308 309 310 311 312 315 318 320 322 324 327 330 332 335 336 336 334 333 332 331 330 329 330 331 334 335 332 331 332 331 332 333 333 333 332 332 330 329 329 329 329 329 329 329 328 327 327 326
314 314 314 314 313 312 312 312 311 312 312 312 312 312 312 311 311 312 313 311 312 313 313 314 314 315 315 315 316 317 317 317 316 314 312 311 312 314 313 314 315 315 313 314 315 310 307 308 308 307 308 309 311 312 312 314 318 320 321 322 322 324 329 333 334 334 334 333 333 332 330 328 329 330 332 332 331 331 329 329 330 332 333 332 332 331 328 326 328 328 329 329 328 327 327 327 327
314 314 314 313 313 313 312 312 312 312 312 312 312 312 312 312 311 312 313 312 313 313 314 314 314 315 314 315 315 316 316 317 317 314 313 313 314 316 316 316 316 315 315 317 314 309 307 307 307 306 307 308 309 311 311 312 313 316 318 318 319 319 321 325 327 328 330 332 333 333 332 331 330 329 330 330 330 330 327 327 328 329 332 331 331 331 328 325 326 327 328 327 327 327 327 327 327
313 313 313 312 312 313 312 312 312 312 312 311 312 311 312 312 312 313 313 312 314 313 314 314 314 314 314 314 315 315 316 317 317 315 314 315 315 316 317 318 317 316 316 314 310 308 307 307 307 306 306 306 307 307 308 309 310 311 313 314 315 315 316 317 318 319 321 325 329 333 334 334 332 330 330 329 329 329 327 327 328 328 331 330 329 329 328 325 324 325 324 323 324 326 326 327 326
313 312 313 312 311 312 312 313 311 312 311 310 312 311 312 313 312 313 312 313 314 314 314 313 314 315 314 315 315 315 315 317 317 315 315 316 317 316 317 318 317 316 317 313 309 308 307 306 306 305 306 306 306 306 306 307 307 308 309 310 311 312 313 314 314 314 315 316 321 326 330 333 334 332 331 330 329 329 328 328 328 329 331 331 329 328 327 325 324 323 320 321 324 325 326 327 326
312 311 312 312 311 311 312 312 311 311 311 311 311 311 313 314 313 313 311 313 314 314 314 313 314 314 314 315 314 315 315 316 317 316 316 316 316 316 317 318 315 315 316 312 310 309 306 305 306 306 306 307 306 307 307 307 307 307 308 308 309 310 312 314 314 314 314 314 315 317 322 327 331 333 333 332 330 330 329 328 329 330 332 334 331 328 326 326 325 324 321 324 328 327 327 327 326
312 311 311 312 311 312 312 313 312 311 311 311 311 311 314 314 313 313 312 312 314 314 315 314 314 314 314 314 314 315 314 316 317 315 313 312 313 315 317 318 315 314 315 312 311 309 306 306 307 307 307 308 307 307 307 307 307 307 308 308 308 309 310 311 313 314 315 315 315 315 317 321 324 329 333 334 332 331 330 329 330 328 330 333 333 330 327 328 328 326 324 325 330 330 328 327 327
312 311 312 313 312 312 313 312 312 312 311 311 312 312 314 314 313 313 312 312 314 314 315 314 314 314 314 314 314 315 314 315 317 315 312 311 313 313 315 317 316 315 314 312 311 310 307 306 307 308 308 308 308 307 307 307 306 307 307 307 308 308 309 310 310 312 314 315 315 315 315 318 321 325 330 334 334 332 331 331 331 328 328 332 334 331 329 330 330 330 329 326 328 331 329 327 327
313 312 313 314 313 313 313 312 312 312 311 311 311 312 314 314 313 313 312 313 314 314 315 314 315 315 315 315 315 315 315 316 316 316 313 312 313 313 314 316 316 315 315 314 313 312 310 307 307 307 308 308 308 308 308 307 307 306 307 306 306 306 308 309 310 310 312 313 314 315 314 315 319 322 325 329 333 334 332 333 332 330 329 330 331 330 330 331 331 331 332 329 329 332 330 327 327
314 313 312 313 313 312 313 313 313 312 311 311 312 312 313 314 313 313 313 313 313 314 314 315 315 315 315 315 315 315 315 316 316 316 315 313 313 313 313 315 315 315 316 315 314 313 312 310 308 307 308 309 309 309 309 308 307 306 307 307 306 306 306 307 309 310 311 312 312 313 314 314 315 319 322 327 332 333 333 333 333 332 332 332 331 330 330 331 331 330 331 331 331 332 331 328 327
314 313 313 313 312 312 313 313 314 314 313 312 312 312 313 313 313 313 313 313 313 313 314 314 315 315 315 315 314 315 315 315 316 316 318 316 313 313 313 314 315 315 316 316 315 314 313 312 311 310 310 311 311 310 310 310 309 307 306 306 306 305 305 305 307 310 311 312 312 311 312 312 313 315 318 322 326 328 329 331 332 332 333 333 333 331 331 331 331 330 329 330 331 331 331 329 327
314 314 313 312 312 311 312 313 314 315 314 313 313 313 313 314 314 314 314 313 313 314 314 314 315 315 314 314 314 315 315 315 315 317 319 316 312 312 313 314 315 316 316 316 316 315 315 313 312 312 311 311 311 311 310 310 309 307 306 306 306 305 304 305 305 307 310 312 312 312 311 312 313 314 315 317 319 321 323 326 329 331 331 332 332 332 332 332 332 331 329 329 330 331 331 329 328
314 314 312 312 312 311 313 314 314 315 314 313 314 314 313 314 314 315 315 314 314 314 314 315 316 315 315 315 314 314 315 316 317 317 316 314 311 312 312 313 314 316 316 316 316 316 315 314 313 313 312 312 311 311 311 309 308 307 306 306 306 305 304 304 305 306 307 310 312 312 312 312 313 314 316 316 316 317 318 319 322 324 327 330 331 331 333 333 333 332 330 330 330 330 330 329 328
314 313 312 311 311 311 313 314 313 314 313 312 314 314 314 314 314 315 316 315 315 315 315 315 315 315 315 315 315 314 315 317 318 317 313 311 311 311 312 313 314 315 316 316 316 316 315 314 314 313 313 312 312 312 311 309 308 307 306 306 306 305 303 303 304 304 306 308 310 312 313 312 313 314 316 317 317 318 317 317 317 317 319 323 328 331 333 333 333 332 331 330 329 330 330 329 328
313 313 312 311 312 311 312 314 314 314 313 313 314 313 313 314 314 315 315 315 315 316 316 315 315 315 315 316 316 317 318 319 319 317 313 311 311 310 311 313 314 315 316 316 316 316 315 315 314 314 313 312 312 312 311 309 308 307 306 306 306 305 304 303 303 306 309 310 311 314 315 313 313 314 316 318 319 319 320 318 319 320 318 317 320 326 330 332 333 333 332 331 329 328 329 329 328
314 313 311 311 312 311 311 313 313 314 314 314 313 312 312 313 313 314 315 315 315 315 315 315 315 315 315 317 318 318 318 318 320 319 316 313 312 311 311 313 314 315 316 316 316 316 316 315 315 314 313 313 312 312 311 310 308 307 306 306 306 306 305 304 304 306 309 312 313 315 315 314 314 315 316 317 319 320 320 320 320 321 321 319 316 316 322 327 330 331 330 329 329 327 326 327 327
313 314 312 312 312 312 312 313 313 313 314 314 313 311 312 313 313 313 315 314 314 314 314 314 315 315 315 316 317 318 317 317 319 320 319 316 313 313 313 314 314 315 315 315 315 315 316 315 315 314 314 313 313 312 311 309 308 307 306 306 306 306 305 305 305 304 306 311 314 314 314 314 315 315 315 316 318 318 319 320 320 319 320 321 319 316 314 318 324 326 323 323 328 329 326 327 327
312 314 313 312 312 313 313 313 313 312 314 315 313 311 311 312 313 313 314 314 314 314 315 315 315 315 316 315 316 317 318 318 317 318 320 317 315 316 316 315 314 315 315 314 314 315 316 316 315 314 314 314 313 313 311 309 308 307 306 306 306 306 305 305 306 305 305 308 311 313 314 314 314 314 315 315 316 317 317 318 318 318 318 319 321 321 317 313 316 324 326 326 329 330 327 327 327
312 315 313 312 312 313 314 314 313 313 314 314 314 313 311 312 312 314 314 313 314 315 315 316 316 316 316 316 316 316 317 319 318 317 318 317 317 317 317 316 314 314 315 314 314 315 316 315 315 315 314 314 314 313 311 310 308 307 306 306 306 306 306 305 306 306 306 306 308 310 312 313 314 314 314 314 315 316 316 317 317 317 317 316 318 321 321 317 313 322 330 331 330 331 328 327 327
314 316 313 312 313 314 314 314 313 314 313 313 315 314 311 311 313 314 314 312 313 315 315 316 316 316 316 315 316 315 316 318 318 317 316 316 317 317 318 318 316 314 314 313 314 315 315 315 315 315 314 314 314 313 312 310 308 307 307 306 306 306 306 305 305 305 306 307 307 308 308 310 311 313 313 313 314 314 315 316 316 316 317 316 316 317 319 320 318 320 327 329 329 329 329 329 328
316 315 313 313 314 313 314 313 313 314 314 313 314 315 311 310 312 313 312 312 312 313 314 316 316 316 316 315 315 315 315 316 317 316 317 317 317 316 316 316 315 314 314 314 313 314 315 315 315 315 315 315 314 314 312 310 308 307 306 306 306 306 306 306 305 304 305 305 306 307 307 308 309 310 311 312 313 313 314 315 315 315 316 317 316 315 315 318 319 319 322 324 325 326 326 328 329
316 314 313 313 313 313 314 313 312 313 313 313 314 315 312 310 311 312 313 313 313 313 314 315 316 315 315 315 315 315 315 316 315 315 317 316 315 314 314 314 314 314 314 314 314 314 314 314 315 315 315 315 314 314 312 310 308 307 306 306 306 306 306 306 305 305 304 304 305 305 306 308 309 309 309 309 310 311 312 313 314 314 315 315 316 315 315 315 316 318 320 322 322 323 323 324 325
315 313 313 313 313 314 313 313 314 313 313 314 314 314 313 311 311 312 313 313 313 313 314 314 315 315 314 314 315 315 315 315 315 315 316 316 314 313 313 313 313 314 313 313 314 314 314 314 314 314 314 315 314 314 312 310 308 307 306 306 306 306 306 306 305 305 305 304 304 304 304 305 306 308 309 310 310 309 310 311 313 314 315 315 315 315 315 314 314 316 320 322 322 323 324 325 324
313 313 313 313 312 313 313 313 314 313 313 315 314 313 314 312 312 312 313 313 313 313 314 314 314 314 314 314 314 314 314 314 315 315 316 316 315 314 313 313 312 312 312 312 313 313 313 313 313 314 314 314 314 314 312 310 309 307 306 306 306 306 306 306 306 305 305 305 304 304 304 304 304 305 307 308 310 310 310 309 310 312 313 315 316 316 315 314 314 314 317 322 323 323 325 327 327
312 312 313 313 312 312 312 312 312 312 313 315 314 313 313 312 312 313 313 313 313 313 313 313 313 313 313 314 313 314 314 314 314 315 315 315 316 315 314 313 312 311 311 311 311 311 312 312 312 313 314 314 314 313 312 310 309 307 306 306 306 306 305 305 306 305 305 304 304 304 304 304 305 304 304 304 306 308 310 310 310 310 311 313 314 315 315 315 314 313 314 318 321 323 324 325 326
313 312 312 313 312 312 312 311 311 311 313 315 314 313 312 311 313 313 313 314 313 313 313 313 313 313 313 313 313 314 313 313 313 314 314 315 315 315 313 312 311 311 311 311 311 311 310 311 311 312 313 313 313 313 311 310 308 307 306 306 305 305 305 305 305 305 305 304 304 305 305 305 304 304 304 304 304 305 306 308 310 310 310 311 312 314 315 315 315 314 314 314 317 320 323 324 325
313 313 312 313 313 313 312 312 312 311 312 313 313 312 311 312 313 314 314 314 312 313 313 312 313 313 313 313 313 313 313 312 313 313 314 314 313 314 313 311 310 311 311 311 311 311 310 311 310 310 312 312 313 312 311 309 308 306 306 305 305 305 304 305 305 305 305 304 304 304 304 304 304 304 304 304 303 303 304 305 307 309 311 311 311 312 314 315 316 316 315 314 314 315 318 321 323
313 313 312 312 313 313 313 313 313 311 311 312 312 312 313 313 314 314 313 313 313 313 313 313 313 312 313 314 313 312 312 312 313 313 313 312 312 313 313 312 312 311 311 311 310 310 310 310 310 310 310 311 312 312 311 309 308 306 305 305 305 304 305 305 305 305 305 304 304 304 304 304 304 303 303 303 303 303 303 304 304 306 309 311 311 312 313 314 316 317 317 317 316 314 315 317 320
312 312 312 312 313 313 313 313 313 312 312 313 313 313 313 312 313 313 314 313 313 312 312 313 313 312 313 314 313 312 312 312 313 312 313 312 312 313 313 313 312 311 311 311 310 310 310 310 310 309 309 310 311 311 311 309 307 305 305 305 305 305 305 305 305 305 304 304 304 304 304 303 303 303 302 302 303 303 303 303 304 305 307 309 310 311 312 313 314 316 317 318 318 317 316 316 318
312 312 312 313 312 312 312 312 312 312 312 313 314 314 313 312 311 313 313 314 313 313 312 312 313 313 313 313 312 312 312 312 312 312 312 312 312 312 313 313 312 311 311 311 311 310 310 310 309 309 309 310 310 311 310 308 306 306 305 305 305 304 304 304 304 304 304 304 304 304 303 303 302 302 302 302 303 303 303 304 304 305 306 308 310 311 311 312 313 315 316 317 318 319 318 317 317
312 312 312 312 312 312 312 312 312 311 312 312 312 313 312 312 313 313 313 314 314 313 313 313 313 313 313 312 312 312 313 312 312 313 313 313 313 313 313 313 312 311 311 311 311 310 310 310 309 308 308 309 310 310 309 307 306 306 305 305 305 304 304 304 304 304 303 303 303 303 303 303 303 303 302 302 303 303 303 303 304 305 306 307 309 310 311 311 311 313 315 316 317 318 319 318 317
312 312 312 312 312 312 312 312 312 311 311 311 312 311 311 312 314 313 313 314 314 314 313 314 313 313 313 313 313 312 313 313 313 313 313 312 313 313 313 312 311 310 311 311 310 310 310 310 309 308 308 309 309 310 309 307 306 306 306 305 305 304 304 304 303 303 302 302 303 304 303 303 303 303 302 302 302 303 303 303 303 304 305 306 307 309 310 311 311 312 313 315 316 317 318 319 318
311 312 312 312 312 312 312 312 312 311 311 311 312 311 311 312 315 314 313 314 314 314 314 314 314 313 313 313 313 313 313 313 313 313 313 313 312 312 313 311 310 311 311 311 311 310 310 309 309 308 307 308 309 309 308 307 306 306 306 305 305 304 304 303 303 302 301 302 304 304 303 303 303 302 302 302 302 302 303 302 303 303 305 305 306 307 309 310 310 311 313 314 315 317 317 318 318
Wind_Speed
2 4 10 12 11 8 6 7 5 4 4 5 3 2 5 3 1 5 8 5 4 5 4 6 7 5 4 7 12 13 15 10 7 2 3 6 5 4 4 2 3 3 5 5 3 1 6 13 14 11 11 11 10 8 6 6 7 8 8 9 10 15 18 18 19 19 21 19 17 16 14 14 14 12 10 11 12 14 13 12 12 11 11 13 12 13 14 13 11 9 8 6 6 6 6 7 8
3 7 12 12 11 6 5 6 4 4 5 5 4 2 6 6 4 7 7 5 6 7 7 8 8 8 8 9 9 8 13 13 11 10 9 7 5 6 6 3 2 2 3 3 3 2 4 12 15 14 13 12 12 9 8 7 8 9 9 10 10 11 15 20 20 18 20 18 16 16 14 13 14 12 11 12 13 15 14 12 12 11 10 11 12 13 14 12 9 7 7 7 7 6 6 8 10
5 11 12 10 9 5 3 5 6 4 6 5 5 4 5 6 6 6 7 8 10 10 9 8 8 7 3 5 6 6 8 9 10 10 10 6 4 5 5 3 2 1 1 1 3 3 5 13 16 15 15 14 13 11 10 9 9 10 11 11 10 11 13 18 20 21 21 17 16 15 13 12 12 11 9 12 14 15 15 13 13 11 11 11 12 13 11 9 8 7 6 6 6 6 9 12 12
8 13 12 7 7 6 5 5 5 5 6 5 3 7 6 6 7 9 9 10 10 8 7 7 6 6 5 6 6 7 10 8 8 7 8 8 5 4 5 3 2 1 2 3 4 4 7 14 16 15 15 15 13 13 11 9 9 11 12 12 11 11 14 18 18 21 20 17 17 15 13 11 12 11 10 13 15 15 15 14 12 11 11 11 11 11 9 7 7 6 5 6 7 8 12 14 13
10 13 12 7 6 4 4 4 4 6 4 3 1 7 8 6 9 10 10 9 7 5 5 5 5 5 8 9 4 4 9 8 8 8 8 8 6 5 5 4 4 3 5 5 5 5 10 16 17 15 15 15 13 13 12 10 10 11 12 13 13 13 15 17 18 18 17 17 17 15 14 12 12 12 12 15 15 15 13 12 11 9 9 10 9 8 7 7 6 5 5 7 8 11 14 15 14
11 10 9 6 4 2 4 4 5 6 1 3 1 6 7 6 10 11 11 9 6 4 4 2 4 8 8 9 8 8 6 5 7 7 7 7 6 7 7 5 4 6 6 6 6 6 13 17 16 14 14 14 12 13 13 11 11 11 12 13 15 16 15 16 17 18 17 16 15 14 14 13 14 12 12 15 16 14 12 10 9 9 8 8 8 7 7 6 5 5 6 8 9 13 17 16 14
10 7 8 6 3 3 6 5 6 6 3 3 2 4 7 8 11 13 12 9 6 5 3 3 5 8 8 7 9 11 6 7 8 6 7 7 7 8 8 7 6 7 6 6 6 6 10 13 15 15 15 14 12 13 13 12 12 12 12 12 14 16 17 16 15 16 16 16 14 13 13 14 14 12 13 15 14 12 10 9 9 8 8 8 7 7 6 5 5 5 7 8 8 13 18 16 14
10 6 7 7 4 5 7 5 5 2 4 3 1 2 6 11 12 12 11 7 6 6 5 6 4 3 6 5 6 9 8 10 9 8 8 7 7 7 9 11 10 7 6 5 5 5 5 8 14 17 18 18 15 15 14 13 12 11 12 11 12 14 16 17 16 16 16 15 14 13 12 13 13 12 15 14 12 11 9 9 8 8 7 8 8 7 6 5 5 6 7 8 8 13 17 17 13
9 5 5 6 4 5 6 6 4 1 4 4 2 2 5 11 11 10 9 6 6 7 6 5 2 1 8 8 9 10 8 9 9 9 8 7 8 7 8 10 11 9 7 5 3 4 4 9 15 17 18 20 16 16 15 14 13 11 12 11 12 13 15 16 17 17 16 16 15 14 13 14 14 13 14 12 10 11 10 8 8 7 8 8 8 7 7 6 7 7 8 8 9 15 17 16 13
10 7 5 5 4 5 7 6 4 4 5 3 3 5 7 10 9 8 7 6 7 8 7 2 2 4 11 11 11 10 8 9 8 8 8 8 8 7 8 8 10 10 8 8 5 5 3 7 12 12 13 17 17 16 16 16 15 12 12 12 11 12 14 16 17 17 16 16 15 14 14 14 14 12 13 12 10 11 9 8 8 8 8 8 8 8 7 7 8 8 8 7 10 16 17 14 12
9 7 6 5 5 6 6 6 5 5 6 4 4 7 8 10 8 6 5 6 7 7 6 2 3 9 10 10 10 9 9 9 7 8 9 8 7 8 9 8 10 10 8 9 8 8 7 4 2 3 11 18 20 20 17 16 16 14 13 12 12 12 14 16 17 17 16 16 16 15 15 15 13 11 12 12 10 10 10 9 8 9 9 9 9 9 7 7 7 8 8 7 11 17 17 14 11
8 6 6 6 6 6 4 4 5 5 6 6 7 9 8 9 8 7 6 7 7 8 6 0 4 8 7 9 9 10 10 8 8 9 9 8 8 8 8 9 10 10 9 8 8 9 9 10 12 11 12 16 18 17 15 14 14 15 16 14 12 12 14 16 17 17 17 17 16 16 16 15 12 11 12 11 10 11 11 10 9 10 10 10 10 9 9 9 8 8 8 8 12 16 17 14 12
9 5 6 6 4 4 3 3 4 5 6 6 7 9 9 9 9 8 8 8 8 8 6 3 5 5 5 8 9 12 10 9 9 9 10 8 8 7 7 8 9 10 9 8 8 9 9 12 13 15 15 12 10 11 12 12 13 14 16 16 12 12 13 15 16 17 17 17 17 16 15 14 13 13 12 11 12 12 11 10 10 10 10 10 10 9 8 9 9 8 9 9 11 13 13 13 13
9 5 7 4 3 4 4 4 4 6 6 7 8 10 10 6 6 8 8 8 7 5 6 6 5 3 5 7 8 11 10 9 9 9 10 8 8 6 5 6 8 9 9 9 9 9 10 11 12 14 16 15 13 10 10 11 12 13 15 15 12 12 13 14 15 17 16 16 16 15 14 14 14 14 13 14 14 13 11 10 11 11 10 11 10 8 7 8 8 8 9 10 10 11 10 11 12
8 6 6 5 4 5 6 5 5 7 5 9 9 11 10 4 4 6 3 4 6 6 8 9 3 1 4 4 6 11 11 12 11 9 9 8 7 4 4 5 7 9 9 8 9 10 10 10 10 11 12 13 14 10 8 10 11 13 15 15 13 11 12 13 15 17 16 15 15 14 14 15 15 14 14 14 14 14 12 10 11 11 10 11 10 9 8 8 9 8 9 10 10 9 8 10 10
8 6 6 5 5 6 6 5 5 7 5 10 10 12 11 7 5 4 2 3 9 10 7 6 3 2 5 5 8 13 13 13 12 9 8 6 4 3 4 4 7 8 9 8 8 9 11 10 8 8 9 10 11 9 7 10 12 14 15 14 13 11 11 12 15 17 16 15 14 13 14 14 14 12 12 12 12 14 14 12 12 12 11 11 10 9 8 9 10 8 9 9 9 9 9 9 8
8 7 6 5 6 6 6 7 5 3 7 12 12 12 11 10 5 4 5 5 10 10 5 5 5 4 6 7 11 13 14 13 11 9 7 6 4 2 2 4 5 7 9 9 9 8 9 10 9 7 7 8 8 8 6 8 12 14 14 13 13 12 10 12 15 16 15 13 13 13 13 14 13 11 11 11 12 13 14 13 14 14 12 12 11 10 8 9 9 9 9 10 10 9 9 8 6
8 6 6 6 6 4 3 5 2 2 8 12 12 11 9 11 9 7 7 6 9 8 6 7 6 5 5 8 11 13 13 13 11 10 8 5 3 2 2 3 4 6 7 8 10 10 9 8 9 7 5 6 6 7 6 6 11 14 15 13 14 13 10 11 13 14 13 11 12 13 13 14 13 12 12 11 13 15 15 13 14 16 14 12 12 10 9 8 8 8 9 10 10 9 8 7 5
9 5 5 6 3 3 3 1 1 1 7 11 10 8 6 9 10 9 8 7 9 8 8 9 7 7 6 7 11 14 14 13 12 10 7 5 3 1 1 3 5 6 7 8 10 12 11 8 7 6 4 3 3 5 6 5 9 13 15 14 14 14 12 12 12 13 13 11 11 12 12 13 12 12 11 9 12 15 17 15 14 17 16 14 12 11 9 7 8 8 7 7 8 7 6 5 5
8 5 6 4 3 4 4 1 2 2 6 11 9 7 6 7 9 8 7 7 8 7 7 8 7 9 9 10 13 14 14 13 11 9 7 5 3 1 2 4 6 7 8 8 9 10 9 9 7 4 3 2 2 3 4 3 8 12 14 15 14 14 14 14 13 13 12 12 12 11 12 13 12 11 10 9 10 12 18 18 15 17 17 15 13 11 9 7 8 8 7 6 6 6 5 5 6
6 6 4 3 4 3 5 4 4 4 3 8 9 8 7 7 6 7 6 6 7 7 6 4 4 9 12 13 14 14 14 13 11 9 7 5 3 1 2 4 5 6 8 7 7 9 8 8 7 5 3 2 2 2 1 1 6 12 15 15 14 14 14 14 14 13 12 13 14 12 12 13 12 11 11 11 9 10 16 19 18 19 19 16 13 11 10 9 8 9 9 8 7 7 7 7 7
5 6 3 5 3 3 7 6 5 5 3 6 8 7 7 7 6 6 7 6 1 2 5 3 3 9 12 14 15 14 13 13 11 9 7 5 1 2 3 4 5 6 6 5 5 7 7 6 6 6 4 2 2 1 0 1 3 10 14 15 14 13 15 15 15 15 14 15 14 12 12 14 13 11 11 11 10 11 13 19 22 20 18 16 14 13 12 10 10 10 10 10 9 8 8 7 7
5 5 1 2 1 2 8 7 5 4 4 6 5 4 6 7 7 6 7 5 4 5 4 3 5 9 11 13 14 14 13 12 11 8 7 4 3 3 4 5 6 7 5 5 6 7 7 6 6 5 4 3 2 0 0 1 1 8 13 16 16 16 16 15 15 16 16 16 16 15 13 12 13 12 12 11 12 11 12 18 21 18 18 17 15 15 13 11 11 11 9 10 9 8 8 7 7
7 3 6 4 2 5 8 7 5 2 2 3 2 3 6 7 5 5 7 3 2 3 5 5 7 10 11 12 12 13 12 11 10 9 7 5 4 6 7 7 8 7 6 7 8 8 8 7 6 4 3 3 3 2 2 2 3 5 9 13 17 18 18 15 15 17 17 17 17 17 15 13 14 14 14 14 14 13 12 17 18 17 19 17 15 15 14 11 12 11 9 9 9 8 9 8 7
8 3 8 7 5 7 7 6 5 2 2 2 3 4 4 3 1 4 6 4 4 4 7 8 8 10 11 12 12 12 11 11 10 9 8 5 4 7 8 7 8 7 6 6 7 8 8 7 6 4 3 1 2 3 4 4 5 6 5 7 11 16 18 17 16 17 17 18 19 19 18 16 15 16 17 17 16 15 15 17 18 18 18 17 15 15 14 13 11 11 9 8 8 8 8 8 8
6 4 9 8 7 8 6 5 4 3 2 2 4 5 3 3 2 6 6 5 5 6 8 9 10 11 11 12 12 12 11 11 11 10 9 7 7 8 8 8 8 6 5 5 6 7 8 7 6 5 4 2 1 2 4 6 6 6 6 4 5 7 12 16 16 17 18 19 20 20 21 20 18 19 19 18 17 17 17 18 19 19 19 18 17 14 14 14 12 11 9 8 9 9 8 9 9
5 7 9 8 7 7 5 4 4 3 3 2 5 4 4 4 5 6 7 6 6 8 9 9 10 11 11 12 12 11 11 12 12 12 11 9 9 9 9 8 7 6 5 5 6 7 8 8 7 5 4 4 4 2 3 5 7 8 8 7 6 4 6 11 12 13 18 22 22 21 21 22 21 22 20 17 18 17 16 18 20 19 20 20 16 13 14 14 14 13 11 10 10 10 10 10 9
7 9 9 7 6 7 5 5 4 4 4 2 4 3 4 5 6 4 9 7 8 9 10 10 10 11 11 12 11 11 11 11 11 12 12 11 10 9 9 8 8 7 6 5 5 7 9 10 8 7 6 5 4 4 2 3 5 7 9 9 10 9 8 9 9 8 11 17 22 22 21 22 23 24 22 20 20 19 19 21 21 20 20 20 16 14 14 13 14 14 13 11 10 10 10 11 10
8 9 7 7 7 7 7 6 4 5 3 3 4 5 7 9 7 6 8 6 7 9 10 10 10 10 11 11 11 11 11 11 12 12 11 10 10 10 9 8 8 7 7 6 7 9 10 10 11 10 8 7 6 4 2 0 2 5 7 9 11 11 11 12 12 11 11 11 15 20 21 20 22 23 24 23 21 20 22 24 23 22 21 21 19 17 15 14 14 15 15 13 12 11 9 10 10
8 7 5 5 7 7 9 6 4 6 3 4 6 6 7 10 9 8 7 6 8 9 10 10 10 9 10 11 11 11 11 12 13 12 11 9 10 10 9 8 8 7 6 6 8 9 9 11 13 13 12 11 10 8 7 5 4 3 5 7 9 10 12 13 13 13 13 12 13 16 18 20 23 24 23 24 24 22 22 24 25 23 20 21 22 20 17 16 15 16 17 15 14 12 9 9 9
6 5 5 5 6 5 9 5 6 8 4 5 8 6 4 9 11 8 6 7 8 9 10 10 10 9 10 10 11 12 12 13 13 13 13 12 12 12 10 9 9 8 7 5 7 7 8 11 13 14 14 14 14 13 13 11 10 8 7 7 7 8 10 12 13 12 11 12 13 15 17 19 22 25 25 24 25 25 24 24 25 23 19 19 22 22 20 19 18 18 19 16 12 10 10 10 10
5 4 5 6 5 4 9 5 7 6 4 8 9 6 3 8 11 8 7 9 10 9 10 10 9 9 10 10 12 12 13 13 14 16 17 15 15 13 12 10 9 8 7 6 5 5 6 9 11 12 12 14 14 15 15 15 14 12 11 10 9 7 8 10 12 12 10 9 10 13 16 18 19 23 27 27 25 25 27 27 26 26 23 20 21 24 22 19 20 19 19 18 13 11 11 11 12
5 6 5 4 6 4 6 6 6 4 4 10 11 7 2 6 10 9 8 11 11 10 9 10 9 9 10 10 11 12 13 14 15 17 18 18 17 16 14 12 10 9 8 6 5 3 3 4 6 8 9 11 12 13 15 16 15 14 13 12 11 10 9 9 11 12 10 9 9 10 12 16 19 20 24 28 29 27 28 27 27 29 29 26 24 27 26 20 19 20 20 21 18 13 11 12 13
6 6 4 3 5 4 3 5 7 6 6 9 11 9 5 4 10 11 11 12 12 10 9 10 10 10 11 11 12 12 13 15 17 18 19 20 18 18 16 13 12 11 9 7 6 5 3 2 1 2 5 7 8 10 12 14 15 15 15 15 13 11 10 10 10 11 11 10 10 10 10 12 17 20 21 25 30 33 32 30 29 30 31 32 31 32 31 25 21 22 20 21 20 16 12 12 13
4 5 4 3 5 6 4 3 6 6 8 9 10 11 9 5 9 12 12 11 11 10 10 10 10 11 11 12 13 14 15 16 18 18 19 20 20 19 17 15 13 13 11 9 8 7 6 5 4 4 4 5 6 8 9 12 14 15 16 18 18 15 12 11 11 11 11 11 11 11 11 11 13 18 21 23 26 31 34 34 34 33 32 33 34 34 34 31 28 26 23 21 22 19 14 12 13
1 2 3 3 4 6 3 4 5 2 6 10 10 10 12 10 10 12 13 12 11 12 12 11 11 11 13 14 15 16 16 17 18 18 18 20 22 20 18 16 15 14 13 11 10 8 8 7 6 7 6 6 6 7 8 10 12 13 15 17 21 20 16 12 11 11 11 10 10 11 12 13 13 15 19 22 24 27 29 31 32 35 35 33 32 33 34 33 32 30 29 25 23 23 18 13 13
0 1 3 4 4 5 2 5 4 1 5 9 10 10 11 12 9 11 13 13 12 14 14 14 13 14 16 17 18 17 18 18 16 16 18 22 23 21 19 18 17 16 14 13 12 10 8 8 8 8 7 6 6 7 7 8 10 12 15 17 20 22 19 14 11 11 11 11 9 10 11 12 14 15 16 18 21 24 27 27 28 31 34 35 33 33 32 32 33 32 31 29 25 26 22 15 15
3 3 4 5 5 3 2 3 4 3 5 7 7 9 12 13 11 11 12 12 13 16 16 16 16 17 17 18 19 19 18 16 13 16 19 22 23 22 20 20 19 17 16 15 13 11 10 9 10 10 8 7 7 6 7 8 10 12 14 17 20 22 20 15 12 11 12 12 11 10 11 12 13 14 15 16 17 19 22 25 27 28 29 32 34 34 32 32 34 33 31 31 29 27 24 17 17
4 4 4 4 3 2 3 4 4 2 4 6 5 8 11 12 12 13 14 14 16 17 16 15 16 16 16 17 17 18 16 13 13 15 17 19 21 22 21 21 20 19 18 16 14 13 11 11 11 11 10 8 8 7 6 8 10 11 14 16 19 21 20 15 12 12 12 12 13 11 10 11 13 13 13 14 15 15 17 19 22 24 26 28 31 33 32 29 32 34 33 32 30 29 26 20 20
5 4 5 3 2 2 2 5 5 3 4 6 6 8 10 11 12 13 17 19 17 15 14 14 15 16 17 16 14 14 13 12 12 13 15 17 18 20 22 21 21 20 19 17 15 14 13 13 14 13 11 10 9 9 8 8 10 12 15 17 19 22 22 16 11 11 11 11 11 8 7 9 11 11 10 9 10 11 13 15 14 15 19 23 27 31 32 29 28 31 32 33 32 33 32 23 22
5 4 6 4 2 4 3 3 3 4 5 6 8 9 8 8 10 10 11 13 14 14 15 15 16 17 17 16 14 14 14 12 10 11 14 16 16 18 21 21 20 20 18 17 16 16 15 15 15 14 13 12 11 10 9 9 10 12 15 18 20 22 23 18 12 10 11 10 8 6 7 10 10 10 10 8 7 7 10 13 13 12 13 16 22 27 31 31 30 31 31 32 33 37 36 27 23
4 6 6 4 2 4 2 2 4 5 6 5 4 7 3 5 6 6 5 7 10 12 14 15 16 16 16 16 16 16 16 13 10 11 13 14 15 17 19 20 20 18 17 16 16 16 16 17 17 16 14 14 12 10 9 9 10 11 13 15 17 20 21 18 14 12 11 10 9 9 9 10 10 10 11 10 8 8 9 12 14 14 13 13 16 21 26 29 30 31 32 32 34 37 38 33 27
3 4 5 4 4 4 4 5 5 4 1 3 3 6 2 2 5 7 6 6 8 10 11 13 15 15 15 16 16 15 14 13 11 11 11 13 15 16 18 19 17 16 16 16 16 16 17 19 18 17 16 16 14 11 10 10 10 10 12 13 14 17 19 18 16 14 12 10 10 12 11 10 10 9 10 11 11 11 11 11 13 14 16 16 15 16 22 26 26 27 29 33 35 36 39 38 32
1 5 4 6 6 6 5 5 5 3 4 2 7 6 6 6 3 5 6 7 8 9 10 11 13 13 14 15 15 14 13 12 12 12 12 14 15 16 17 17 15 15 16 16 15 16 18 19 19 18 18 18 16 14 12 11 11 10 10 11 12 14 16 18 18 16 14 12 10 11 12 12 11 9 9 10 11 11 10 10 11 12 15 18 17 16 18 23 27 28 28 31 34 36 39 39 36
2 5 3 4 5 5 5 5 5 2 4 5 7 6 6 6 3 6 7 8 9 10 10 10 12 13 13 14 14 14 13 12 13 13 13 14 15 14 15 15 16 16 16 15 15 16 18 20 20 20 20 19 19 16 13 12 12 10 10 10 11 12 13 16 17 17 17 15 12 11 11 12 12 11 10 9 10 10 9 9 11 11 12 15 18 21 20 20 24 28 29 29 31 35 38 39 40
4 6 4 4 4 4 5 6 5 2 5 7 5 7 6 5 3 5 7 7 8 9 8 9 11 12 12 13 14 14 14 14 14 14 14 14 14 15 15 16 17 16 16 15 16 17 19 20 21 21 22 21 20 17 15 14 13 11 10 10 10 10 10 12 15 17 17 17 16 14 12 11 12 12 12 12 11 10 10 10 10 11 11 12 16 22 24 24 25 29 30 29 30 32 36 39 41
6 7 5 5 6 5 5 5 4 4 7 7 5 7 6 5 3 3 4 4 5 6 7 8 10 11 12 12 14 15 15 15 15 15 15 14 15 16 17 17 17 16 17 17 18 18 20 21 22 22 23 23 21 19 17 15 14 12 11 10 10 10 9 9 11 14 16 17 17 16 15 13 12 12 14 14 13 13 12 11 10 11 11 12 15 19 22 25 29 30 29 30 32 33 35 38 40
7 6 6 6 6 5 5 5 5 6 6 4 6 6 6 6 3 0 2 3 4 5 6 7 9 11 12 13 14 15 16 16 17 17 16 16 17 17 17 17 17 18 18 18 19 20 21 22 23 23 23 23 22 21 19 17 16 14 12 12 11 10 9 8 9 11 14 16 17 17 17 16 15 14 13 13 14 14 14 13 12 11 11 11 13 16 20 24 28 30 28 28 31 35 37 38 39
7 7 7 6 6 6 6 6 6 7 5 5 6 6 5 7 7 5 4 5 6 7 6 7 8 10 11 13 15 16 17 17 17 17 17 16 17 18 18 18 18 18 17 18 19 20 21 23 24 24 24 23 23 22 20 18 18 16 15 14 13 12 11 9 9 10 11 14 16 17 18 19 19 18 16 16 17 16 16 16 14 13 12 11 11 13 18 23 27 30 30 29 29 32 35 36 38
9 8 7 7 7 7 8 7 7 8 3 5 6 5 5 6 8 9 8 7 9 10 10 10 10 11 12 13 14 15 17 17 17 18 18 17 17 17 18 17 17 17 17 16 17 19 20 22 23 23 22 23 23 22 21 19 19 18 17 16 15 14 12 11 10 11 11 12 14 16 18 20 21 22 22 21 20 19 18 18 18 17 15 14 14 14 15 20 25 30 32 32 31 31 32 34 36
10 9 8 8 8 8 8 6 8 8 2 6 6 5 5 4 2 4 6 6 9 11 12 11 11 12 14 14 14 14 16 18 18 18 18 18 17 17 18 18 18 17 16 16 16 18 19 20 22 22 21 22 22 21 22 20 19 19 18 17 16 14 13 12 12 12 12 13 14 15 18 20 22 24 25 26 25 23 21 20 20 20 19 19 18 16 15 17 20 25 31 35 35 33 32 33 35
7 7 8 9 9 8 7 4 4 5 3 4 6 4 6 5 1 4 6 7 10 11 12 13 13 14 14 15 17 17 18 18 18 19 19 18 17 17 18 18 17 17 16 16 16 16 17 19 21 20 19 20 21 22 23 21 20 19 18 17 16 14 14 13 13 14 14 15 15 17 18 20 22 24 26 29 29 27 25 24 23 22 22 21 20 18 16 16 16 19 24 30 37 37 35 34 35
3 6 9 8 8 9 9 5 1 1 7 7 7 7 7 7 7 10 12 11 11 12 13 14 14 14 14 14 16 18 19 19 19 20 19 19 18 18 18 18 18 18 17 16 15 15 16 18 20 18 17 19 20 22 23 22 21 19 18 17 16 15 14 15 15 17 17 18 18 19 21 22 23 25 27 29 30 30 28 26 25 25 24 23 22 20 19 18 16 17 19 22 29 35 38 37 35
4 6 6 4 5 7 8 7 4 6 9 9 8 10 9 8 7 8 13 14 13 14 14 15 15 14 14 14 16 18 19 19 19 20 19 19 19 19 19 19 18 18 17 17 16 15 16 17 19 17 16 18 20 22 23 23 21 19 17 17 16 16 16 17 18 19 20 21 22 22 23 24 25 26 28 29 29 28 27 26 26 26 26 25 24 24 22 20 18 18 18 19 21 26 34 38 37
10 8 4 4 8 8 7 8 8 9 10 8 9 12 10 10 7 6 11 13 13 14 14 14 14 14 14 15 16 18 18 18 19 19 19 19 19 19 19 18 19 19 17 17 18 18 17 18 19 18 16 17 20 22 23 22 20 18 16 16 16 16 17 18 20 22 23 24 25 25 26 27 26 27 27 26 25 24 24 24 25 26 27 26 26 25 24 23 23 21 20 20 19 20 27 35 39
9 7 6 8 9 9 9 8 8 10 11 10 11 12 10 9 10 10 10 10 11 13 13 13 14 15 15 15 16 17 18 18 18 18 19 19 19 19 18 17 19 19 18 17 18 18 18 18 20 19 16 17 19 21 23 22 20 18 17 16 16 17 19 21 22 24 25 26 26 26 26 25 23 23 23 21 21 22 22 23 24 25 25 26 26 25 25 24 25 24 22 21 20 19 23 29 35
7 7 8 9 8 8 10 9 9 11 11 10 11 12 10 8 7 10 11 9 10 12 12 11 13 15 16 16 17 17 17 18 19 18 19 19 19 19 17 17 20 19 18 18 18 18 19 19 20 19 17 17 18 20 22 22 20 18 18 17 18 19 20 22 24 25 27 27 23 21 21 21 19 19 20 20 20 19 20 22 24 25 24 24 25 25 25 25 24 24 24 25 24 23 23 25 30
7 7 8 10 9 9 10 11 11 11 12 11 11 13 11 6 3 7 9 8 9 12 12 12 13 15 16 17 18 17 17 18 19 19 19 18 18 17 16 18 21 19 17 17 18 19 19 19 18 17 16 16 17 20 21 21 20 19 19 19 19 21 22 24 25 26 27 26 20 16 16 17 18 17 18 19 20 18 18 19 22 24 25 25 25 25 25 25 26 27 27 27 26 26 26 26 28
Wind_Direction
183 173 164 160 152 148 179 208 227 194 240 249 218 204 150 122 20 165 152 151 143 88 69 90 90 78 72 92 97 77 47 32 26 27 102 86 104 50 5 345 3 314 276 262 257 198 192 185 172 177 173 152 142 131 125 122 128 133 142 152 161 169 164 161 166 163 159 162 159 152 151 147 147 143 144 146 144 142 132 136 143 142 152 157 150 143 141 143 142 137 144 146 135 123 113 126 138
143 154 157 153 153 170 190 211 255 184 221 238 203 199 123 132 185 171 151 128 99 104 112 105 100 74 66 91 96 79 56 48 52 70 87 96 111 41 9 334 357 304 276 261 227 205 193 186 176 174 168 149 142 133 125 126 130 132 135 145 153 159 163 163 161 158 156 158 155 151 154 154 153 150 152 152 149 143 138 147 152 147 152 161 156 148 145 144 142 137 142 140 132 126 128 145 149
147 150 154 153 162 215 207 201 257 218 221 235 184 144 133 165 164 126 111 99 97 114 122 114 104 62 46 116 72 52 75 64 65 83 82 80 90 29 353 343 7 274 300 157 183 188 183 181 176 168 156 144 141 135 128 126 130 138 139 143 142 138 153 164 158 153 156 158 157 157 161 161 159 155 157 156 150 145 144 151 153 146 148 157 156 149 143 143 142 142 146 141 136 131 142 151 154
150 153 157 175 186 213 214 206 252 247 231 236 168 142 167 168 130 107 100 99 109 126 128 128 106 38 19 101 77 71 94 80 65 76 80 71 72 28 339 6 48 5 83 127 154 157 174 176 173 166 152 149 146 136 132 129 130 140 143 141 143 134 139 157 154 149 157 163 162 164 167 165 162 157 159 160 154 150 147 149 151 148 151 153 152 149 145 146 145 148 155 151 150 143 151 155 156
149 155 161 196 217 205 222 228 241 245 243 259 153 144 171 151 125 120 109 105 117 129 138 141 106 75 62 68 47 85 102 95 81 73 80 72 62 38 9 38 63 67 99 126 120 137 172 173 171 168 154 153 151 141 135 130 129 138 145 143 146 143 137 144 147 151 163 167 165 166 167 166 166 162 161 162 156 151 149 151 153 153 156 154 152 152 149 149 149 155 161 157 157 154 159 160 155
145 160 168 207 250 242 232 226 221 227 246 339 12 136 162 147 134 130 118 113 109 106 134 151 124 126 96 69 56 73 102 111 98 80 79 71 57 46 34 53 72 80 100 116 102 130 168 169 171 172 158 151 147 141 138 131 127 132 143 146 150 155 151 149 152 160 168 168 167 168 169 169 168 166 164 161 155 152 152 154 155 157 157 153 150 148 149 147 153 165 168 157 157 164 164 164 159
159 175 178 204 218 217 235 225 224 212 110 19 360 127 156 146 139 140 134 130 121 108 100 97 137 131 110 110 83 71 85 99 106 95 83 75 60 57 55 66 79 83 90 106 98 116 152 164 173 176 164 153 146 140 136 133 131 131 139 146 152 160 161 162 163 165 168 169 171 173 175 172 169 166 163 158 150 149 152 156 156 158 155 150 146 146 152 150 157 169 178 162 157 171 169 170 164
172 189 190 215 196 201 239 228 231 212 104 83 23 90 146 148 148 152 147 142 132 125 112 109 157 148 107 134 110 92 93 96 107 98 85 78 71 73 71 69 76 75 72 91 90 94 126 170 181 186 173 155 148 143 138 136 138 137 138 143 151 161 165 167 169 169 171 173 174 177 179 171 168 166 163 157 147 152 155 157 159 158 155 150 149 152 157 155 160 166 177 170 164 173 172 174 169
182 207 199 228 218 201 233 221 216 146 117 122 127 114 141 152 157 164 154 132 123 127 115 109 263 220 122 120 114 117 110 102 104 96 92 85 81 82 76 71 71 66 62 74 72 77 121 180 191 202 181 158 152 148 143 140 142 145 140 142 148 157 164 167 168 170 173 175 174 176 178 172 166 164 164 159 152 158 157 161 168 165 155 150 152 155 159 158 159 161 165 164 165 171 174 174 169
192 219 215 230 231 209 220 212 193 158 140 121 131 152 158 160 166 175 163 130 129 126 109 103 321 117 129 122 118 128 122 119 111 96 98 90 86 80 76 71 65 62 55 61 58 50 83 185 199 208 174 154 158 158 151 142 143 149 146 143 143 151 160 163 164 168 172 173 172 172 173 168 162 163 168 167 160 162 162 169 174 163 153 150 152 151 155 157 156 161 158 153 162 172 178 176 172
196 210 228 232 225 217 216 199 182 156 142 140 142 158 167 170 173 178 164 130 135 132 123 194 125 120 131 119 116 128 125 127 122 109 105 91 83 72 66 58 54 56 51 53 49 45 51 31 18 133 148 158 163 161 155 144 145 152 151 144 137 147 158 161 164 167 171 170 169 168 166 167 169 170 172 174 168 167 169 171 169 156 150 149 151 150 151 156 161 166 163 156 162 174 183 183 180
215 191 211 230 224 222 221 203 179 150 153 165 150 156 166 172 179 179 168 142 146 144 128 183 130 134 137 119 122 134 132 128 128 121 111 94 78 63 49 40 36 42 45 48 41 39 52 42 38 67 120 156 164 156 150 146 151 153 151 148 136 143 158 162 165 168 170 171 172 172 171 172 178 178 175 178 176 174 172 170 165 152 149 152 153 155 158 162 167 176 178 170 162 174 188 190 188
229 196 208 230 236 231 221 207 168 157 170 160 140 151 161 174 184 176 165 148 151 146 118 95 132 151 128 111 128 144 140 132 136 130 119 108 91 71 41 26 22 26 32 40 41 36 42 53 52 55 76 103 121 131 142 150 157 158 153 152 140 140 156 164 167 170 171 174 177 176 174 174 177 178 177 179 181 179 172 168 165 153 152 158 157 158 163 165 170 187 192 182 168 172 188 196 197
227 221 230 233 231 242 229 212 178 190 177 132 132 149 162 181 180 167 163 154 144 118 116 131 145 176 138 126 145 154 147 147 158 149 136 125 109 93 53 22 9 8 14 25 38 43 36 45 57 55 64 72 72 94 131 149 162 165 156 153 145 139 153 163 166 170 171 174 176 175 172 173 178 180 178 179 183 181 173 171 166 159 160 161 158 156 157 158 163 187 192 186 179 171 180 192 197
225 223 240 248 227 222 219 223 204 210 167 126 143 153 160 159 154 169 176 149 120 109 136 148 175 226 132 136 156 154 151 167 183 167 150 137 120 98 60 17 356 350 352 1 18 43 43 34 44 52 61 69 68 79 118 147 169 170 160 155 153 145 150 159 163 167 170 173 175 175 173 176 181 182 181 184 186 181 173 176 173 164 166 166 159 152 145 143 148 171 187 185 182 172 175 182 185
222 221 230 242 228 213 202 207 216 218 153 127 147 157 157 139 152 171 90 90 123 134 149 145 159 66 66 70 120 147 163 178 185 168 153 145 126 81 55 15 358 348 346 348 355 31 46 40 36 36 39 50 63 69 102 149 174 174 165 161 162 157 153 157 161 165 169 174 178 176 174 177 182 182 181 184 189 185 176 177 177 170 172 170 160 153 139 130 133 148 174 177 173 167 170 174 175
208 223 230 229 222 214 187 188 206 187 127 129 149 165 162 142 149 136 111 123 135 142 152 147 143 94 84 106 126 152 176 179 174 162 154 148 135 101 58 25 13 358 354 350 346 8 32 41 43 34 28 25 42 57 82 145 168 173 172 168 168 169 163 161 164 166 169 177 181 177 178 178 177 180 180 185 192 190 183 181 180 172 176 176 163 158 143 129 125 124 141 151 152 152 153 159 162
198 218 225 225 218 201 162 182 185 98 133 140 153 172 172 153 152 144 140 139 141 147 149 154 144 120 121 136 149 165 177 174 166 162 160 161 155 135 61 25 16 4 1 352 338 343 356 22 43 42 44 34 30 51 69 132 166 174 174 171 169 172 171 165 169 172 171 181 183 176 183 180 176 187 188 191 194 188 187 189 186 176 176 180 169 164 155 139 130 116 116 130 140 142 136 137 145
212 227 222 227 203 112 64 111 109 53 146 143 149 174 178 154 150 161 175 156 158 166 151 161 157 143 144 144 160 169 172 168 164 167 170 171 165 138 35 1 357 354 351 350 332 329 336 346 18 33 45 57 45 55 70 122 171 179 175 172 169 173 173 166 175 183 178 182 187 179 187 184 179 195 196 192 195 192 192 192 191 183 177 179 175 171 169 157 145 132 119 124 137 138 129 138 155
217 227 230 212 134 101 84 107 108 83 142 148 149 159 158 140 147 175 193 166 179 199 162 171 176 157 151 148 159 166 168 166 165 171 171 170 165 111 28 4 357 348 339 345 333 326 332 328 335 359 22 46 66 69 68 117 179 184 177 175 174 177 177 172 178 191 188 187 193 189 192 192 186 198 202 194 198 197 192 188 188 187 181 179 178 177 181 178 166 158 150 148 152 149 153 168 170
199 213 263 91 144 148 119 126 119 115 145 155 148 155 157 139 157 184 195 189 201 211 175 168 178 160 155 155 162 166 167 167 171 173 173 185 173 106 25 1 352 346 340 351 339 328 335 331 321 321 343 3 31 81 60 70 191 190 183 182 181 180 178 176 181 191 194 194 200 199 197 199 193 197 205 201 202 198 190 186 185 187 184 179 180 182 188 191 182 182 181 174 175 176 182 188 183
198 207 328 55 172 160 118 120 111 116 135 153 156 165 153 143 176 193 210 224 224 132 153 149 156 156 157 162 166 166 168 171 174 175 179 192 150 65 20 20 18 11 6 12 353 338 345 343 325 309 301 295 336 40 56 347 199 194 192 190 187 183 180 181 185 192 199 198 200 202 203 206 201 200 208 204 200 204 198 189 186 186 185 182 183 187 191 193 185 192 195 186 188 190 193 198 197
229 200 183 92 200 112 118 124 108 114 160 165 159 143 146 169 186 191 227 248 36 59 124 147 148 150 155 162 168 168 171 176 175 176 175 169 119 92 88 77 54 41 36 33 23 10 8 2 347 323 300 278 268 61 107 308 224 200 198 193 189 187 185 186 190 195 201 200 200 204 205 210 210 206 209 204 196 202 194 186 185 185 188 189 189 190 195 196 188 195 197 192 198 199 202 209 213
246 201 157 151 98 117 119 122 118 109 162 145 141 158 181 202 181 178 222 227 90 106 140 150 148 146 152 160 168 170 173 176 174 172 161 147 129 119 113 89 61 55 55 49 46 33 22 16 9 352 320 287 244 199 176 258 278 237 211 199 196 193 189 190 193 198 204 203 203 206 205 210 217 213 212 207 195 193 185 182 185 189 193 195 196 195 199 200 194 198 199 199 203 204 209 212 220
237 213 146 150 119 127 119 123 130 111 129 124 191 197 189 210 215 203 207 168 142 148 150 159 155 152 156 162 168 171 173 172 172 176 166 162 159 134 116 84 65 70 68 45 43 38 31 28 23 24 20 325 245 206 186 216 266 274 252 217 205 200 197 196 193 197 205 206 207 209 209 211 218 219 219 218 207 197 191 186 187 195 198 200 204 201 201 205 202 203 202 204 208 209 215 217 220
208 182 145 151 136 135 134 137 132 118 139 178 217 201 170 171 238 223 189 155 154 159 166 166 162 163 164 166 170 171 173 173 175 182 179 182 174 142 117 88 79 91 77 37 37 36 32 35 37 45 50 64 118 185 192 206 235 261 270 259 231 211 207 206 202 200 203 206 209 212 212 214 219 222 224 227 219 204 198 198 196 199 202 206 209 205 206 208 208 211 210 209 213 216 219 226 228
152 158 143 142 138 144 156 149 141 153 147 209 229 198 167 168 224 212 152 153 168 166 174 171 170 172 170 170 172 173 175 177 180 184 184 185 174 148 125 104 102 111 82 55 55 41 41 53 57 65 73 85 102 120 178 205 222 242 257 267 268 257 226 221 218 211 206 206 209 213 214 215 220 224 226 227 224 214 210 216 213 207 207 212 211 205 211 212 210 212 213 214 217 222 223 230 233
147 158 150 143 150 157 175 173 164 191 159 177 234 204 179 191 222 179 114 144 173 171 175 172 177 174 172 173 171 177 180 180 185 189 188 185 175 157 142 127 119 113 90 79 75 55 58 70 72 78 85 91 98 107 131 201 221 236 251 264 270 271 263 250 251 249 230 215 211 214 217 218 219 223 227 226 228 229 225 222 221 218 214 214 212 210 214 217 215 214 218 222 220 220 222 227 229
155 172 181 161 178 187 185 184 178 212 167 139 227 224 206 206 203 137 109 141 164 172 174 171 181 175 174 176 175 183 183 186 193 193 189 184 177 165 158 149 136 121 100 86 77 65 63 74 80 80 81 81 79 80 81 59 255 252 254 262 270 274 272 267 264 264 264 248 226 221 222 223 222 221 226 228 227 231 232 228 225 223 219 217 218 217 216 217 220 222 226 231 230 225 223 226 226
160 187 223 178 204 205 178 184 194 205 154 137 223 239 206 191 177 142 132 155 159 172 176 173 180 178 182 184 188 192 189 195 199 195 189 183 180 171 169 163 146 137 121 88 71 62 60 77 83 77 75 71 65 60 54 42 12 325 294 281 280 281 279 277 274 267 264 260 248 239 233 231 229 223 223 228 228 228 232 233 227 221 218 219 222 221 219 218 220 227 231 231 234 232 228 232 231
172 182 228 214 230 179 142 168 198 195 149 159 222 253 209 169 162 156 163 174 170 174 175 179 183 184 194 195 202 205 199 203 203 201 195 187 187 181 179 174 153 145 139 102 71 60 63 79 77 70 68 63 59 55 50 45 37 20 358 336 313 301 290 286 283 280 275 263 252 247 241 237 237 232 226 226 228 227 230 234 230 224 218 218 224 227 225 222 221 227 231 226 226 231 228 233 231
187 193 214 213 234 151 123 144 196 202 158 175 215 251 216 162 156 157 175 184 185 188 182 184 189 191 203 207 211 215 211 208 208 210 205 196 198 195 188 182 169 156 146 119 90 72 73 84 78 69 64 57 53 49 46 43 39 30 16 1 348 337 315 298 290 287 287 277 261 249 241 237 237 238 233 229 227 226 229 233 235 233 228 221 224 229 227 228 229 232 233 227 221 225 228 231 230
195 223 233 194 219 199 132 137 177 202 168 185 215 255 254 160 155 150 166 183 189 200 193 190 199 203 214 220 221 223 220 213 211 215 211 204 206 207 200 188 182 177 168 149 129 119 101 98 86 73 60 51 45 39 36 33 31 30 25 11 353 343 334 317 301 293 287 278 271 259 246 238 235 237 237 234 231 228 227 231 235 235 233 228 227 232 232 232 235 235 236 235 231 227 225 231 235
187 218 242 204 229 236 169 138 151 183 205 205 215 239 262 170 159 159 166 181 192 207 209 204 211 217 224 231 233 231 227 221 218 217 215 211 209 212 209 198 192 191 190 182 169 173 181 199 177 55 32 29 27 23 23 19 17 18 20 17 4 347 334 326 314 302 292 280 272 263 255 247 241 236 235 236 236 233 229 228 232 233 234 234 233 236 236 234 234 235 234 237 237 231 222 229 238
198 208 228 214 220 234 237 138 130 181 216 220 216 225 242 215 174 176 176 182 197 215 226 227 227 230 233 239 243 241 238 231 225 220 217 215 212 213 214 206 203 203 202 201 198 199 206 223 244 276 311 337 349 354 2 6 6 5 7 8 6 359 339 322 314 309 299 286 276 269 261 254 250 240 236 237 239 239 236 232 232 232 233 235 236 237 238 236 235 234 234 236 239 235 222 221 237
223 212 250 251 225 232 228 104 98 204 223 223 225 227 235 229 201 192 188 189 210 228 238 242 239 242 245 247 248 248 245 239 233 225 216 217 216 214 215 213 211 212 210 210 212 214 218 230 247 265 285 306 319 332 347 357 357 352 354 357 359 357 346 325 308 305 303 292 277 272 267 259 255 249 243 241 241 243 243 240 237 235 233 232 233 234 235 237 237 236 235 235 238 239 230 221 233
151 233 250 252 252 255 201 116 107 154 245 234 232 237 241 240 228 212 201 196 218 236 240 241 240 246 250 251 251 250 248 245 237 221 213 221 224 217 217 217 216 217 217 216 218 220 225 233 245 259 275 296 312 327 341 345 344 344 348 351 353 350 343 331 312 299 298 295 280 268 265 261 257 254 251 248 245 245 245 247 245 241 238 235 234 234 234 236 238 238 237 235 235 240 238 224 226
211 237 247 238 238 248 124 122 132 146 247 239 223 241 247 245 244 236 221 210 223 235 238 240 242 249 252 253 254 249 248 243 224 216 221 228 226 220 218 219 218 219 220 220 219 223 228 233 243 254 267 283 298 312 328 332 332 342 347 348 350 347 340 328 312 298 288 288 286 270 258 256 256 255 254 252 251 250 248 249 250 248 245 241 238 237 234 232 235 234 231 233 235 237 236 221 220
219 236 250 248 222 203 138 152 177 176 243 241 222 246 253 248 246 241 235 232 235 237 240 245 248 253 254 252 250 245 244 232 211 220 231 230 225 220 218 219 218 219 222 222 220 225 230 234 243 252 261 274 287 296 314 324 324 333 340 344 348 346 340 327 303 294 289 283 284 278 260 250 248 249 253 252 251 253 251 250 251 251 250 246 241 236 230 228 234 233 228 231 235 235 233 222 219
229 250 254 248 133 241 219 152 171 194 239 268 273 270 266 255 248 243 239 240 242 238 238 244 248 251 250 248 245 240 239 229 213 218 224 224 223 218 216 217 218 218 222 223 222 226 229 234 243 251 258 268 279 287 297 308 315 325 333 340 346 347 346 339 316 301 297 288 287 291 285 266 251 246 250 255 254 254 254 252 249 252 252 250 245 239 233 230 234 236 233 234 235 236 235 225 217
213 231 261 270 155 244 282 117 163 207 215 253 275 271 258 237 237 239 229 232 236 231 230 235 237 239 240 241 243 240 239 233 217 210 217 223 219 212 213 215 217 219 221 223 225 227 230 235 244 251 257 265 273 279 287 298 313 329 338 344 349 351 351 348 339 319 303 298 300 303 301 288 271 254 248 251 259 258 255 254 251 250 250 252 249 245 240 237 236 238 242 244 241 238 236 223 213
218 205 236 259 209 214 236 174 212 234 202 190 266 279 238 175 210 218 191 203 217 215 220 227 227 228 228 231 237 238 238 234 217 205 209 212 208 208 210 212 216 219 221 225 229 230 231 237 246 253 257 262 269 272 277 289 305 323 336 345 350 353 354 351 344 327 308 304 309 305 299 292 283 272 258 254 258 257 253 254 254 252 250 250 249 246 243 239 238 241 246 250 245 239 235 226 216
254 161 178 211 220 208 207 215 230 262 242 154 238 279 275 213 223 204 187 199 203 200 209 221 223 219 220 225 229 230 229 224 214 204 199 197 198 200 203 210 215 220 224 229 232 232 233 239 248 253 256 261 266 267 269 280 295 312 326 338 347 352 354 352 346 338 323 308 307 309 308 300 290 283 271 264 262 261 259 257 255 252 250 249 246 243 241 236 232 235 240 244 243 238 234 228 218
259 110 145 185 201 208 212 232 241 284 330 228 213 243 274 276 242 173 191 212 209 206 208 215 217 211 213 219 220 218 215 211 207 202 195 192 194 196 200 209 215 221 227 231 234 236 237 243 250 253 254 259 262 263 265 271 284 300 317 331 343 350 354 352 347 345 338 323 313 310 310 309 304 295 281 273 269 269 268 265 262 255 250 248 245 241 239 234 228 228 232 236 238 238 236 233 225
98 109 149 181 202 228 222 243 253 264 306 260 199 200 257 264 189 154 187 213 220 218 209 207 207 203 206 209 209 210 208 205 203 200 195 192 194 198 201 209 217 223 229 234 238 240 242 247 252 254 254 257 258 260 260 264 274 288 304 321 336 345 351 353 348 344 341 337 333 324 313 311 309 302 291 279 272 272 272 272 268 263 256 250 245 240 238 235 229 229 232 234 235 237 238 237 232
107 129 151 171 199 229 223 247 267 234 266 271 197 185 253 278 204 179 188 210 230 229 215 206 203 202 208 209 209 210 207 206 205 201 197 196 198 202 206 214 222 227 231 237 242 245 247 251 254 255 255 255 256 256 255 258 267 278 291 306 321 335 344 349 348 345 343 342 342 339 329 317 309 304 298 286 274 269 267 270 269 266 262 255 246 241 240 239 231 228 232 236 237 239 239 237 235
130 159 185 194 200 214 227 243 263 253 253 254 188 182 243 275 247 206 193 212 246 238 212 196 197 207 214 214 214 214 211 209 208 205 202 201 205 210 214 220 227 232 236 242 247 251 253 256 258 258 256 256 256 256 255 256 263 271 280 292 304 317 330 340 343 344 345 344 346 346 342 335 323 312 303 294 284 273 264 262 265 265 264 259 251 244 242 241 235 230 232 236 237 238 240 239 237
173 202 211 215 213 211 230 225 221 249 251 201 157 175 223 247 254 155 157 192 243 243 215 199 205 217 220 220 220 221 220 215 211 209 205 205 210 215 220 224 230 236 240 245 251 256 260 262 263 261 258 257 256 256 255 255 260 268 275 284 294 302 313 325 332 335 338 340 343 346 346 344 339 328 315 304 298 288 274 264 259 258 262 264 259 250 244 242 239 234 233 236 238 238 239 242 241
206 222 218 230 236 223 240 234 216 244 241 144 151 179 215 244 258 266 240 212 221 229 226 228 237 243 239 230 224 224 224 220 216 213 208 207 212 217 221 225 231 237 242 248 253 258 262 265 266 262 257 257 255 253 254 253 257 265 272 280 288 294 301 309 317 325 329 332 336 339 340 341 340 335 326 316 310 303 292 281 271 261 255 255 261 259 248 243 241 238 234 235 239 240 239 240 242
207 216 218 229 246 249 250 241 236 251 226 134 150 179 230 255 250 246 240 224 219 220 225 236 245 251 254 246 234 228 226 223 221 218 213 211 211 215 220 224 231 238 242 246 250 254 258 262 266 262 255 254 253 249 249 250 254 262 268 276 283 288 295 301 308 316 321 326 329 332 334 334 334 334 330 324 316 307 301 293 287 278 265 256 255 261 256 246 242 240 237 236 237 239 240 239 240
213 224 233 237 250 262 260 256 264 267 204 140 152 175 226 238 179 191 207 214 223 224 226 232 241 247 252 252 243 233 228 225 224 221 217 214 213 215 220 224 229 232 235 239 244 250 257 263 268 265 254 252 251 244 245 248 252 259 265 272 279 283 290 298 304 310 314 318 322 326 329 329 329 329 326 323 318 310 302 295 291 286 278 268 255 254 259 254 247 243 239 237 236 238 239 240 240
221 223 236 239 247 258 265 279 304 306 290 183 180 208 235 237 217 199 203 213 219 221 221 224 236 245 246 247 241 231 227 225 222 220 216 215 215 217 221 223 224 224 229 237 244 255 265 269 272 268 253 249 247 239 241 246 250 257 263 269 276 280 286 295 301 306 309 313 316 319 323 324 324 323 320 318 315 310 303 295 292 287 283 276 261 251 252 254 251 248 245 240 237 238 238 239 241
214 218 238 246 251 260 265 262 145 278 273 249 218 227 238 247 253 228 218 221 215 211 214 217 229 239 241 241 234 225 223 221 217 216 215 216 217 219 222 222 222 225 231 239 247 259 270 275 279 273 252 245 243 236 238 244 248 255 261 267 274 278 285 294 299 303 306 309 311 313 316 317 317 316 314 311 308 304 300 295 293 289 284 278 268 257 251 250 251 249 248 245 241 239 238 238 240
247 241 253 267 256 255 258 260 248 233 253 254 223 217 227 246 251 211 206 216 215 209 212 215 221 228 232 231 225 220 219 218 215 213 215 218 220 221 222 221 225 230 237 244 249 258 270 277 282 278 259 246 239 233 236 242 247 253 259 266 274 279 287 294 298 302 305 307 309 310 311 311 311 310 308 304 300 296 293 292 291 289 285 278 272 265 254 245 246 249 245 246 245 241 238 237 237
248 271 284 263 254 251 239 246 256 250 254 256 228 219 231 244 242 210 205 212 215 213 210 210 212 216 221 221 216 216 216 215 215 215 217 220 222 223 222 224 231 239 244 247 250 258 268 275 279 279 264 246 236 233 236 241 245 252 260 268 276 283 291 296 299 303 304 306 306 307 307 307 306 305 303 298 292 289 288 287 287 288 286 280 274 269 258 243 239 245 245 242 245 243 240 237 235
232 256 255 248 256 262 254 247 252 256 258 260 250 241 243 244 241 242 235 221 215 212 204 204 208 210 213 213 213 214 214 216 218 220 222 223 224 225 223 228 239 246 249 250 253 259 266 272 277 278 266 248 239 235 237 241 246 252 261 269 279 287 293 297 300 303 304 305 305 305 305 304 302 300 298 293 286 284 283 282 284 284 283 280 275 270 263 251 242 244 246 244 241 240 242 240 236
234 240 244 248 251 256 261 258 254 259 262 263 264 259 254 254 245 240 240 234 223 215 205 205 209 209 209 210 213 216 216 218 221 225 227 227 228 228 227 235 244 247 249 252 256 261 265 270 274 276 269 256 244 238 239 243 248 255 263 272 281 289 294 298 301 303 304 304 301 299 299 297 294 293 292 289 285 281 278 278 280 280 278 277 275 271 267 259 250 244 243 244 243 240 239 240 239
271 264 261 260 258 258 263 261 252 253 258 262 268 266 264 270 245 225 233 238 230 220 212 209 213 215 214 213 214 217 220 221 223 225 228 230 231 229 230 240 246 247 249 252 256 263 267 271 274 274 269 259 247 242 242 246 252 259 267 276 284 290 295 299 302 304 304 301 295 288 288 289 287 286 286 285 283 278 275 275 277 277 276 275 273 271 268 263 256 248 240 238 241 243 240 238 238